Wind_Speed
28 28 28 28 29 29 30 30 30 30 29 29 28 27 28 29 30 31 31 31 31 31 31 32 33 36 38 41 45 47 45 43 40 38 39 42 41 39 39 35 33 38 43 43 43 43 42 41 42 45 46 46 46 43 42 41 41 43 45 44 42 43 44
28 27 28 28 28 29 30 30 30 29 29 29 28 27 27 28 30 31 31 32 32 33 33 34 34 35 37 39 43 46 47 46 45 43 42 44 43 41 42 39 36 39 44 44 44 44 43 43 43 45 48 50 50 47 46 45 43 42 44 45 45 45 44
29 28 28 28 28 29 29 30 30 29 29 28 28 28 28 29 30 30 31 32 33 34 35 36 37 37 36 38 41 44 47 47 48 48 47 47 46 43 42 41 38 40 44 44 45 45 44 44 45 47 48 50 52 51 49 48 45 43 43 44 44 44 44
32 31 29 29 29 29 29 30 29 29 29 29 29 29 30 30 30 31 31 32 33 34 35 36 37 37 36 37 39 42 44 46 48 50 50 49 49 45 44 43 41 42 45 46 45 45 45 45 46 48 49 50 52 52 52 50 48 47 45 44 44 44 43
36 34 33 32 30 30 30 30 31 31 31 31 31 31 30 31 31 31 31 31 32 34 36 36 36 36 36 37 38 39 42 44 46 48 49 49 48 46 45 46 45 44 46 48 47 46 45 45 47 49 49 51 51 52 52 52 50 48 47 46 46 45 43
40 38 37 36 34 32 31 31 32 32 33 33 33 33 32 32 32 32 31 32 32 33 35 37 37 37 38 38 38 39 40 42 44 46 48 49 48 47 46 48 49 48 48 49 50 49 46 45 47 49 50 51 51 51 51 51 50 49 49 48 46 45 44
43 42 41 40 38 37 35 34 34 34 34 34 34 34 34 34 34 33 33 33 33 33 34 35 37 38 39 39 39 40 40 41 43 45 47 49 49 48 48 49 51 53 53 51 51 51 50 48 48 50 52 52 52 52 52 51 50 50 50 50 48 46 46
45 45 44 44 43 42 40 38 37 36 36 36 36 35 35 35 36 36 36 35 35 35 34 35 36 37 39 40 41 41 41 42 43 44 46 48 49 49 50 50 51 54 57 56 53 52 52 51 51 52 53 54 54 54 53 53 52 51 51 51 50 49 47
46 46 46 46 46 45 44 43 42 40 39 39 38 38 38 38 38 38 38 38 37 37 36 36 36 36 38 40 42 42 42 43 43 44 45 47 49 49 50 52 52 52 56 58 58 56 54 53 53 54 54 55 56 56 55 53 53 52 52 52 52 51 50
47 47 47 47 47 47 46 46 45 45 44 43 42 42 41 41 40 40 40 40 40 39 39 38 38 37 37 38 41 43 44 44 44 44 45 46 49 50 50 52 53 53 54 57 59 60 59 56 55 56 57 58 58 58 57 56 55 55 55 55 54 54 53
47 48 48 49 49 49 48 48 48 47 47 47 47 46 45 44 44 43 43 42 42 42 42 42 41 40 39 39 39 41 43 45 46 46 46 47 48 50 51 52 54 55 55 56 58 61 63 61 59 58 59 60 60 59 59 58 58 58 58 58 57 57 57
48 49 50 50 51 50 50 50 49 49 49 49 49 49 48 48 47 46 46 45 45 45 45 45 45 44 43 42 41 41 42 44 46 48 48 48 48 50 51 52 54 56 57 57 57 60 63 65 64 61 60 60 60 60 60 59 58 57 57 56 56 57 57
51 51 51 51 52 52 52 51 51 51 51 51 51 51 50 50 50 50 49 49 48 48 48 47 48 48 48 47 46 45 44 43 44 46 48 49 50 50 51 53 54 56 57 58 58 59 61 65 68 65 62 62 62 62 62 60 59 58 56 55 54 54 55
53 53 53 53 52 52 52 52 52 54 53 53 53 53 52 52 52 52 52 52 52 52 51 51 50 50 50 50 50 49 48 47 46 46 47 49 51 51 52 53 55 56 58 59 59 60 60 63 67 68 66 64 64 65 65 64 61 60 58 58 57 57 56
57 56 56 55 54 54 54 53 52 53 53 52 53 53 53 54 54 54 53 53 54 54 54 54 54 53 52 52 52 52 52 51 50 50 49 49 50 52 52 53 54 56 58 59 60 60 61 62 65 68 69 68 65 65 66 68 67 64 62 61 61 61 60
59 60 60 57 55 54 54 53 52 53 53 53 54 54 54 55 54 54 55 55 55 55 56 56 56 56 56 55 55 55 55 55 54 54 53 53 52 52 53 54 55 56 58 60 61 61 62 63 64 66 69 70 70 68 66 67 69 70 68 66 65 65 65
48 54 59 60 58 57 56 55 55 56 56 57 58 57 56 56 54 54 55 55 56 56 57 57 58 59 59 59 59 58 58 58 58 57 57 56 56 55 55 55 55 56 57 59 62 63 63 64 64 66 67 69 71 72 71 69 68 69 72 72 71 69 68
43 48 56 57 57 57 58 58 58 58 58 59 60 59 57 56 56 55 57 57 57 57 58 59 59 60 60 61 62 61 61 61 61 60 60 59 59 59 58 57 57 57 58 58 60 63 65 66 66 66 67 68 70 71 73 73 72 70 70 72 74 75 75
52 56 59 57 52 51 54 57 58 59 58 57 58 58 56 54 55 55 57 59 59 59 59 60 60 61 61 62 63 64 64 64 64 63 63 63 62 61 61 61 61 60 60 60 60 61 63 66 68 68 69 69 70 71 72 74 75 74 72 71 72 74 77
57 61 63 60 54 50 50 53 56 58 57 56 57 57 51 47 49 51 53 57 60 61 60 60 60 62 63 64 65 65 65 66 66 66 66 66 65 65 64 64 64 64 64 63 63 63 63 64 66 68 70 71 72 72 72 73 74 75 76 75 74 74 74
57 59 61 61 58 54 51 51 53 55 55 55 57 57 49 41 43 49 54 56 58 60 61 61 61 63 65 66 66 66 66 66 66 68 68 68 68 68 68 67 67 67 67 67 67 66 66 65 65 67 69 71 73 73 74 74 74 75 76 77 77 78 77
57 59 60 60 59 57 53 52 52 53 54 53 54 57 55 49 48 54 58 58 57 56 58 60 61 65 69 69 68 68 67 66 67 68 69 69 70 70 71 71 71 71 71 70 70 69 69 69 68 69 69 70 72 73 74 75 75 76 77 77 78 79 80
59 60 60 60 60 60 57 54 54 54 55 55 54 57 61 60 57 59 59 57 56 56 56 58 62 67 72 74 72 70 69 69 70 70 70 71 72 72 73 73 73 74 74 74 73 73 72 72 72 72 73 73 73 73 74 75 75 76 77 78 79 80 81
61 61 62 62 62 62 61 59 58 57 57 58 57 58 62 62 61 61 61 59 60 62 61 61 64 67 71 75 75 72 71 71 72 72 73 73 74 75 75 75 75 76 77 77 76 76 75 75 75 75 76 76 76 76 75 75 76 76 76 77 78 79 80
63 63 63 64 64 65 64 63 62 60 60 61 62 63 65 66 66 66 66 66 67 66 64 62 64 66 68 72 74 74 73 72 71 71 72 74 76 76 76 77 77 78 79 79 79 79 79 79 79 79 79 79 79 79 79 79 78 78 78 78 78 79 80
66 66 66 67 67 67 68 67 66 65 64 64 65 66 68 69 71 71 71 72 72 70 66 66 68 69 70 71 72 73 74 73 71 71 72 73 75 76 76 77 78 79 80 81 82 82 81 82 82 83 83 83 83 82 82 82 82 82 82 82 81 82 82
68 69 69 70 70 70 70 71 70 69 69 69 68 69 70 71 72 73 72 72 73 72 70 70 72 73 73 72 72 73 74 74 72 72 74 74 74 74 75 76 77 78 79 81 83 84 84 84 85 86 86 86 86 86 86 85 85 86 86 86 85 85 85
70 71 71 72 72 73 73 73 73 73 73 73 73 73 73 73 74 74 74 72 71 70 71 73 75 76 75 74 74 75 76 75 74 75 78 78 77 77 77 77 78 79 80 81 83 84 84 86 88 89 88 88 88 89 89 89 89 89 89 89 89 89 89
72 72 72 73 73 74 74 74 75 75 75 76 76 76 76 76 76 76 76 74 70 69 71 74 76 77 77 76 76 76 77 77 77 78 79 80 80 80 80 80 80 80 81 82 83 84 84 86 88 89 90 90 91 91 92 92 92 92 93 93 92 92 92
73 72 73 73 73 74 75 75 76 76 76 77 77 78 78 78 77 77 77 75 71 70 73 76 77 79 79 78 78 79 80 80 80 80 80 80 80 81 81 82 82 83 83 83 84 84 85 86 87 88 89 90 91 93 94 95 95 95 95 96 96 96 96
74 74 74 74 74 74 75 76 76 76 77 77 77 78 78 78 78 77 76 74 72 72 75 77 78 79 79 78 79 80 82 83 83 83 82 82 81 82 82 82 83 83 84 85 85 86 86 87 87 87 87 88 90 92 93 95 96 97 97 98 98 99 99
76 76 76 76 76 76 76 76 77 77 77 76 77 77 78 78 77 76 74 73 72 74 77 78 78 79 79 79 79 80 82 83 83 82 82 82 83 83 83 83 83 83 84 85 87 87 88 88 88 88 87 87 88 90 91 93 94 96 97 99 100 101 101
76 77 77 77 77 78 78 78 78 78 78 77 77 77 78 78 77 74 73 73 74 75 76 77 77 78 79 79 80 80 82 82 82 81 81 82 83 83 84 84 84 84 85 86 87 88 88 88 88 88 88 88 88 89 90 91 93 94 96 97 99 101 102
77 77 78 78 79 79 79 80 80 79 79 78 78 78 79 77 75 74 73 74 75 75 76 76 76 77 78 79 80 80 80 81 81 81 81 82 82 83 84 84 84 84 86 86 87 88 88 88 88 89 89 89 89 89 90 91 92 93 94 96 97 99 100
77 78 79 80 80 80 80 81 81 80 80 79 78 79 78 76 74 73 73 73 74 75 75 75 76 77 77 78 79 79 79 80 81 82 81 81 82 82 84 83 83 83 85 85 86 87 87 87 88 88 88 89 89 89 90 90 91 92 93 94 95 96 97
76 78 79 80 80 80 81 81 81 80 79 78 78 78 77 76 74 73 72 72 73 74 74 75 75 75 76 76 77 78 78 79 81 81 81 81 81 81 82 82 81 81 82 82 83 83 84 85 86 86 87 88 88 89 89 89 90 91 92 93 93 94 95
73 75 77 78 78 78 79 79 79 78 77 75 75 75 75 74 73 71 71 71 72 73 73 73 73 73 74 75 76 76 77 77 78 79 79 79 79 79 79 79 78 77 78 78 79 80 81 82 83 84 85 86 86 87 87 88 88 89 89 90 91 92 93
Wind_Direction
266 266 264 260 257 254 251 250 250 249 248 248 248 248 247 246 245 244 243 241 238 237 239 241 241 239 237 233 230 228 227 226 225 223 221 221 222 225 228 230 230 223 221 225 227 230 231 230 228 225 223 220 220 226 232 233 232 231 231 231 232 233 235
265 264 262 260 257 254 251 249 248 247 246 247 246 246 247 248 249 248 246 241 237 235 237 242 245 244 241 237 235 235 234 232 231 228 224 220 220 223 226 227 226 222 221 224 227 230 231 232 232 229 226 223 222 226 231 234 235 234 233 232 233 235 236
264 263 262 260 257 254 251 248 247 245 245 245 244 244 245 247 249 250 249 247 242 238 237 239 243 246 246 242 240 239 239 238 237 237 235 231 228 228 228 226 224 221 220 223 227 230 232 233 234 233 231 228 226 227 230 233 235 236 236 234 235 238 239
263 262 261 260 258 255 251 248 246 245 244 244 244 244 246 247 248 248 248 249 248 245 243 242 243 246 247 247 244 243 242 241 240 241 242 242 239 236 234 229 223 220 220 222 225 229 232 234 236 235 234 233 232 231 233 234 235 236 239 239 240 241 241
262 262 261 259 257 255 253 249 246 244 244 243 243 244 246 248 248 248 248 248 248 248 247 247 247 248 249 250 249 247 245 243 242 241 243 245 245 240 236 232 227 221 220 223 225 228 231 234 237 237 236 235 235 235 235 236 236 237 239 242 244 245 244
261 261 260 259 258 256 253 250 247 245 244 243 243 243 244 245 247 248 248 249 249 248 247 247 248 249 250 250 251 250 248 246 244 243 242 244 246 242 237 234 231 226 223 223 226 229 230 233 236 238 238 237 236 236 237 237 237 237 238 241 244 246 245
261 260 260 259 258 257 255 253 250 248 246 245 245 245 245 245 245 246 247 248 249 248 247 246 247 248 249 249 249 249 249 248 246 245 243 243 245 243 239 235 232 230 228 225 225 228 231 233 235 237 238 238 237 237 237 238 237 237 237 239 241 244 245
261 261 260 260 258 258 257 255 254 252 251 249 248 247 247 246 246 245 246 246 247 248 248 247 246 247 248 248 247 247 247 247 247 246 245 244 244 244 242 239 234 231 231 229 226 226 230 234 235 236 238 239 239 239 238 238 238 239 239 239 241 242 243
261 261 261 260 259 258 257 256 256 255 254 253 251 250 249 248 248 247 247 247 247 247 247 247 247 246 246 246 245 245 245 245 246 246 245 244 245 244 243 242 239 234 231 231 229 227 228 232 236 237 238 239 239 240 240 240 240 241 241 242 242 243 243
262 261 261 261 260 259 258 257 257 256 255 255 254 252 252 251 250 250 249 249 248 248 247 247 248 247 246 246 245 244 244 243 244 244 245 245 245 245 245 244 243 239 234 231 231 230 229 230 234 238 239 240 241 242 242 242 243 244 244 244 244 244 245
262 261 261 260 260 260 260 259 258 258 257 256 255 255 254 253 252 252 251 251 250 249 248 247 248 247 247 247 246 245 245 244 243 243 243 243 244 245 245 245 244 243 240 235 232 231 231 230 232 235 238 241 243 245 246 246 247 248 247 247 247 246 246
260 260 259 259 259 259 260 260 259 259 259 258 257 256 255 255 254 253 253 252 252 250 249 248 248 247 247 247 247 246 246 245 245 244 243 242 242 243 244 245 245 245 245 242 238 234 232 231 232 233 234 237 240 243 245 247 249 250 249 248 247 248 248
260 259 259 259 259 259 259 259 259 259 258 258 258 257 257 256 255 255 254 253 252 252 251 250 249 249 248 248 248 248 247 247 247 246 245 244 242 242 242 243 244 245 245 246 244 240 235 233 233 233 233 234 235 237 239 242 244 247 249 249 248 248 249
263 261 260 259 259 260 259 259 259 259 258 258 258 258 258 257 256 255 255 254 253 252 252 251 250 250 250 249 249 249 249 249 249 248 248 247 245 244 243 242 243 244 245 246 246 245 242 238 235 236 236 235 234 234 235 236 237 240 242 245 247 248 249
265 264 263 261 259 259 260 259 257 257 258 259 258 258 258 257 257 256 255 255 255 255 253 253 252 251 251 251 250 250 249 249 250 250 250 249 248 246 245 244 243 243 244 246 246 246 246 244 241 239 239 239 239 237 235 234 235 235 236 238 240 242 245
269 267 264 261 259 259 259 258 255 256 258 259 259 258 257 257 257 257 255 255 255 256 256 255 254 253 252 251 251 251 250 249 249 249 249 249 249 249 247 246 245 244 244 245 246 246 246 246 245 243 242 242 243 242 241 238 235 234 235 236 236 237 238
269 268 264 261 259 257 256 256 256 257 258 258 257 258 257 258 259 258 256 255 255 256 256 256 256 254 252 251 251 251 251 250 249 249 248 248 248 249 249 248 247 246 245 244 245 246 247 246 246 246 245 245 244 245 246 245 242 239 236 236 237 237 237
254 259 260 257 256 255 256 257 258 258 258 258 258 257 257 258 259 258 257 256 256 256 256 256 256 254 253 252 252 251 251 250 250 250 249 249 248 248 248 249 249 248 247 246 246 246 247 247 247 246 246 246 246 246 246 247 248 247 244 241 239 239 239
248 251 254 255 255 257 259 260 259 258 258 259 259 259 258 258 259 260 259 258 257 257 256 256 256 256 254 254 253 252 251 251 250 250 250 250 250 249 249 249 249 249 249 248 248 247 247 247 248 248 247 247 246 247 247 247 248 249 249 248 246 243 241
252 252 253 256 257 257 258 259 259 259 258 257 257 256 256 258 262 264 264 261 258 256 255 256 257 258 257 255 253 251 251 251 251 250 250 250 250 251 250 250 249 249 249 249 248 248 248 248 248 248 248 248 247 247 247 247 247 248 249 250 251 249 247
256 256 257 258 259 258 255 252 253 256 256 255 255 253 250 250 256 260 262 261 259 257 257 257 259 259 259 257 255 253 252 252 253 252 251 251 250 251 251 250 250 250 250 249 249 249 249 249 249 249 248 248 248 248 248 248 248 248 249 249 250 251 252
258 259 259 260 261 260 256 251 250 251 252 251 251 250 246 242 245 250 254 258 260 260 258 258 259 259 259 258 256 256 255 254 254 253 253 252 252 251 251 250 250 251 251 250 250 249 249 249 250 250 250 249 249 249 249 249 249 250 250 250 250 250 251
260 260 261 261 261 261 259 255 250 249 249 248 247 247 245 244 246 248 251 255 259 261 262 262 260 260 260 261 259 258 258 257 255 254 254 254 253 252 252 251 250 251 251 251 251 251 250 250 250 250 251 251 250 250 250 250 250 250 250 250 251 251 251
263 263 263 263 263 262 261 258 254 251 249 248 247 245 245 245 246 248 248 251 257 263 264 264 263 261 261 262 262 261 260 259 257 256 255 255 255 254 253 252 251 251 251 251 251 251 251 251 251 251 251 251 251 251 251 251 251 251 251 251 251 251 252
264 264 264 264 264 264 263 262 259 256 253 250 249 247 247 246 246 247 248 251 256 261 261 260 261 262 263 263 264 263 262 261 260 259 258 257 256 255 254 254 253 252 252 252 252 251 251 252 252 252 252 252 252 252 252 252 252 252 252 252 252 252 252
265 265 264 264 264 264 264 264 263 260 258 255 253 251 251 250 249 249 249 251 254 256 256 255 257 260 262 263 264 264 264 263 263 262 261 260 257 256 255 254 254 253 253 253 253 252 251 252 252 252 252 253 253 253 253 253 253 253 253 252 252 252 253
264 264 264 264 264 264 264 264 264 263 262 260 258 256 255 254 254 252 251 251 252 254 254 253 253 256 258 260 262 263 264 264 264 263 263 262 260 259 257 256 256 255 254 254 254 253 252 252 252 252 252 252 253 253 253 253 253 253 253 253 253 253 253
263 263 263 263 264 264 264 264 264 264 264 263 262 260 259 258 258 257 255 253 252 253 254 254 253 254 256 258 259 261 263 264 264 264 264 264 263 262 261 260 259 258 257 256 256 255 254 254 253 252 252 252 253 253 253 254 254 254 254 254 254 254 254
263 263 263 263 263 263 263 263 263 263 263 263 263 263 262 261 261 261 260 258 256 255 256 256 255 255 256 256 257 259 261 262 262 263 264 264 265 264 264 262 261 260 259 259 258 257 256 255 254 254 253 253 253 253 253 254 254 254 255 255 255 254 254
265 264 263 263 262 262 262 262 262 262 262 262 262 263 262 262 262 262 262 262 261 260 259 258 258 258 257 256 256 257 258 259 260 260 261 262 263 264 264 264 263 262 261 260 260 259 258 257 256 255 255 254 254 254 254 254 254 254 254 255 256 256 255
267 266 265 264 263 263 262 262 262 262 261 261 262 262 262 262 262 262 262 263 263 262 261 260 260 260 259 258 257 257 257 258 258 258 259 259 260 261 261 262 262 262 262 261 261 260 259 258 258 257 256 255 255 255 254 254 254 254 254 254 255 255 256
267 267 267 266 266 265 264 263 263 263 262 262 262 262 262 262 261 261 262 262 262 261 261 261 261 261 261 260 259 259 258 258 258 258 258 258 259 259 259 259 260 261 261 261 261 260 259 259 259 258 257 256 255 255 255 255 255 254 254 254 254 254 255
266 266 266 266 266 266 266 265 265 264 264 264 263 263 263 262 262 262 262 262 261 260 260 260 260 261 261 261 261 260 260 260 260 259 259 258 258 258 258 258 258 259 259 260 260 260 260 259 259 259 259 258 257 256 256 255 255 255 254 254 254 254 254
265 265 265 265 265 265 265 266 266 266 266 265 265 265 264 264 264 264 263 262 262 261 261 260 260 260 261 261 261 261 261 262 261 260 260 259 259 258 258 258 258 258 259 259 259 260 260 260 260 260 260 259 258 257 257 256 256 256 255 255 255 255 255
264 264 264 265 265 265 265 265 265 266 266 266 266 266 266 266 266 265 264 264 263 263 263 262 262 261 261 261 262 262 262 262 262 262 261 261 260 260 259 259 258 258 259 259 260 260 261 261 261 261 261 261 260 259 258 258 257 257 257 256 256 256 256
263 263 263 264 264 264 265 265 266 266 266 266 267 267 267 267 267 266 265 265 264 264 264 263 263 263 263 263 263 262 262 262 262 262 262 262 261 261 261 260 260 260 260 260 261 261 261 261 261 261 261 261 261 260 260 259 259 258 258 258 257 257 257
262 262 262 263 263 263 264 265 266 266 267 267 267 267 267 266 266 266 266 265 265 264 265 265 265 264 264 264 264 263 263 263 263 263 263 263 263 262 262 262 262 262 262 262 262 262 262 262 261 261 261 261 261 261 261 260 260 260 259 259 259 258 258
Height
10599 10599 10599 10599 10599 10599 10600 10600 10601 10602 10603 10604 10605 10606 10607 10608 10608 10609 10610 10610 10611 10612 10613 10614 10615 10615 10616 10618 10619 10620 10622 10624 10626 10628 10630 10632 10634 10636 10637 10638 10639 10640 10641 10642 10644 10647 10649 10652 10655 10657 10659 10661 10663 10665 10666 10668 10669 10671 10672 10675 10676 10677 10680
10596 10596 10596 10596 10596 10596 10597 10597 10598 10599 10600 10601 10602 10604 10605 10606 10606 10607 10608 10608 10609 10610 10611 10612 10613 10613 10614 10615 10615 10616 10618 10620 10621 10623 10625 10628 10630 10632 10633 10635 10636 10637 10639 10639 10641 10642 10645 10648 10650 10652 10655 10656 10659 10660 10662 10664 10666 10668 10669 10671 10672 10673 10676
10594 10593 10593 10593 10593 10593 10594 10595 10596 10597 10598 10599 10600 10602 10603 10603 10604 10605 10606 10606 10607 10608 10609 10610 10610 10611 10611 10612 10612 10613 10614 10616 10617 10618 10620 10622 10626 10628 10630 10631 10633 10634 10635 10636 10637 10639 10641 10643 10645 10647 10650 10652 10654 10657 10659 10660 10663 10664 10665 10667 10669 10670 10671
10590 10590 10590 10590 10590 10590 10591 10592 10593 10594 10595 10596 10598 10599 10600 10601 10601 10602 10603 10603 10604 10605 10606 10607 10607 10608 10608 10609 10609 10610 10611 10612 10613 10614 10615 10617 10620 10623 10625 10627 10629 10631 10632 10633 10634 10636 10638 10639 10640 10643 10645 10648 10650 10653 10655 10656 10659 10660 10661 10663 10665 10665 10667
10586 10586 10586 10587 10587 10587 10588 10589 10589 10590 10591 10592 10593 10594 10595 10596 10597 10598 10599 10600 10601 10601 10602 10603 10604 10604 10605 10605 10606 10607 10607 10608 10609 10611 10611 10613 10615 10618 10620 10622 10625 10627 10628 10629 10631 10633 10634 10635 10636 10638 10641 10643 10646 10648 10650 10652 10654 10656 10658 10659 10660 10661 10663
10581 10582 10582 10582 10583 10583 10584 10585 10586 10586 10587 10588 10589 10590 10591 10592 10593 10594 10595 10596 10597 10597 10598 10599 10600 10600 10601 10602 10602 10603 10604 10605 10606 10607 10608 10609 10610 10613 10615 10617 10619 10622 10623 10625 10627 10629 10630 10631 10633 10634 10636 10638 10641 10644 10646 10648 10650 10652 10653 10654 10656 10656 10658
10575 10576 10576 10577 10578 10579 10579 10580 10582 10583 10584 10585 10585 10586 10587 10588 10589 10590 10590 10591 10592 10593 10594 10594 10595 10596 10596 10597 10598 10599 10600 10601 10602 10603 10604 10605 10606 10608 10610 10612 10614 10616 10618 10621 10623 10624 10626 10627 10629 10630 10631 10633 10636 10639 10641 10643 10645 10647 10648 10649 10651 10652 10653
10569 10570 10570 10571 10572 10573 10574 10575 10576 10578 10579 10580 10581 10582 10582 10583 10584 10585 10586 10586 10587 10588 10589 10589 10590 10590 10591 10592 10593 10594 10595 10596 10597 10598 10599 10600 10601 10603 10605 10607 10609 10611 10613 10616 10618 10620 10621 10623 10624 10625 10626 10628 10631 10634 10636 10638 10640 10642 10643 10644 10646 10647 10649
10564 10564 10564 10565 10566 10567 10568 10569 10571 10572 10573 10574 10575 10576 10577 10578 10579 10580 10581 10582 10583 10583 10584 10585 10585 10586 10586 10587 10588 10589 10590 10591 10593 10594 10595 10596 10597 10598 10600 10601 10604 10606 10608 10610 10612 10615 10617 10618 10620 10621 10622 10623 10626 10628 10630 10633 10635 10637 10638 10640 10641 10643 10644
10558 10559 10559 10558 10559 10560 10561 10563 10564 10565 10566 10567 10569 10570 10571 10572 10573 10575 10576 10577 10578 10579 10580 10580 10581 10581 10582 10582 10583 10584 10585 10586 10588 10589 10590 10591 10593 10594 10595 10596 10598 10600 10603 10605 10607 10609 10611 10613 10615 10616 10618 10619 10621 10623 10625 10628 10630 10631 10633 10635 10637 10638 10639
10553 10553 10552 10552 10552 10554 10555 10556 10557 10558 10559 10560 10562 10563 10564 10566 10567 10569 10570 10572 10573 10574 10575 10576 10576 10577 10577 10578 10578 10579 10580 10581 10582 10584 10585 10586 10588 10589 10590 10592 10593 10595 10597 10599 10601 10603 10605 10607 10609 10611 10612 10614 10616 10618 10620 10622 10624 10626 10627 10629 10631 10632 10633
10547 10546 10546 10545 10546 10548 10548 10549 10550 10551 10552 10553 10555 10556 10557 10559 10561 10562 10564 10566 10567 10568 10569 10570 10571 10572 10572 10573 10574 10575 10576 10576 10577 10578 10579 10580 10582 10583 10585 10586 10587 10589 10591 10593 10595 10598 10599 10601 10603 10605 10606 10608 10611 10612 10614 10616 10618 10619 10621 10623 10625 10626 10627
10540 10540 10540 10539 10541 10542 10542 10543 10543 10544 10545 10546 10547 10549 10550 10552 10553 10555 10557 10558 10560 10561 10562 10564 10565 10566 10567 10568 10569 10570 10571 10572 10573 10573 10574 10575 10576 10577 10579 10580 10581 10583 10584 10586 10588 10591 10593 10595 10597 10599 10600 10602 10604 10606 10607 10609 10612 10613 10615 10616 10618 10620 10621
10534 10534 10533 10534 10535 10536 10535 10536 10536 10537 10538 10539 10540 10541 10543 10544 10546 10547 10549 10550 10552 10553 10555 10557 10558 10560 10561 10563 10564 10565 10566 10567 10568 10569 10570 10570 10571 10572 10573 10574 10576 10577 10578 10580 10581 10583 10586 10588 10590 10592 10593 10595 10597 10599 10601 10602 10604 10607 10608 10610 10611 10613 10615
10526 10527 10527 10528 10529 10529 10528 10529 10530 10530 10531 10531 10532 10533 10534 10535 10537 10539 10541 10542 10544 10546 10548 10550 10552 10554 10555 10556 10557 10558 10560 10561 10562 10563 10564 10564 10565 10566 10567 10568 10570 10571 10572 10573 10575 10576 10578 10580 10582 10584 10585 10587 10589 10591 10593 10595 10597 10599 10601 10603 10604 10606 10608
10518 10517 10517 10519 10521 10521 10521 10523 10524 10523 10523 10523 10523 10524 10526 10527 10529 10531 10533 10534 10536 10538 10541 10543 10545 10546 10548 10549 10549 10550 10551 10552 10553 10555 10556 10557 10558 10560 10561 10562 10563 10564 10565 10566 10568 10569 10571 10573 10574 10576 10578 10579 10581 10583 10585 10587 10589 10591 10593 10595 10597 10599 10601
10511 10506 10504 10507 10511 10513 10514 10516 10516 10516 10516 10515 10514 10515 10516 10518 10521 10523 10524 10526 10528 10530 10533 10534 10536 10538 10539 10540 10541 10542 10543 10544 10545 10547 10548 10549 10551 10552 10554 10555 10556 10558 10559 10560 10561 10562 10563 10564 10566 10568 10570 10572 10574 10575 10576 10578 10581 10583 10585 10587 10588 10590 10592
10502 10496 10494 10496 10501 10505 10506 10508 10509 10509 10507 10506 10505 10507 10509 10511 10512 10514 10516 10518 10520 10521 10523 10526 10527 10528 10529 10530 10531 10533 10534 10536 10537 10539 10540 10542 10543 10544 10546 10547 10549 10550 10552 10553 10555 10555 10556 10557 10558 10560 10562 10563 10565 10567 10568 10569 10571 10574 10576 10578 10580 10582 10583
10493 10489 10487 10489 10494 10498 10499 10499 10500 10500 10499 10499 10498 10500 10502 10503 10505 10506 10507 10509 10511 10512 10514 10517 10517 10519 10520 10520 10521 10523 10525 10527 10529 10531 10532 10534 10536 10537 10539 10540 10541 10542 10544 10545 10547 10548 10549 10550 10551 10552 10553 10554 10556 10557 10559 10561 10562 10564 10566 10568 10570 10573 10575
10485 10483 10482 10484 10488 10492 10493 10493 10491 10491 10492 10493 10491 10492 10495 10497 10499 10499 10498 10498 10499 10502 10505 10507 10508 10509 10509 10509 10510 10514 10516 10518 10520 10522 10523 10525 10528 10529 10530 10532 10533 10533 10535 10536 10538 10539 10541 10542 10543 10544 10545 10546 10547 10548 10550 10551 10554 10556 10557 10559 10560 10562 10565
10477 10476 10476 10477 10480 10484 10486 10486 10485 10484 10485 10486 10485 10485 10488 10490 10491 10490 10487 10486 10488 10492 10495 10498 10499 10498 10497 10497 10500 10503 10507 10510 10512 10513 10514 10516 10518 10519 10520 10522 10524 10524 10525 10527 10529 10530 10532 10533 10535 10535 10536 10537 10538 10540 10541 10543 10545 10546 10548 10550 10551 10552 10554
10469 10468 10469 10470 10471 10474 10477 10479 10479 10478 10479 10480 10479 10479 10480 10480 10480 10479 10479 10479 10482 10485 10487 10488 10488 10486 10483 10485 10490 10493 10497 10502 10503 10504 10505 10507 10509 10509 10510 10513 10514 10515 10516 10517 10520 10521 10523 10524 10525 10526 10527 10528 10530 10531 10532 10534 10535 10537 10539 10540 10541 10542 10544
10460 10460 10461 10462 10463 10464 10467 10470 10471 10471 10472 10473 10473 10474 10473 10472 10472 10472 10473 10476 10476 10478 10480 10480 10478 10476 10472 10473 10480 10485 10489 10491 10493 10495 10496 10497 10498 10499 10500 10503 10505 10505 10506 10508 10510 10512 10514 10515 10516 10517 10517 10518 10520 10521 10523 10525 10526 10528 10530 10531 10531 10532 10534
10450 10451 10452 10453 10453 10455 10457 10459 10461 10463 10465 10466 10467 10467 10466 10467 10467 10466 10468 10471 10471 10472 10474 10473 10470 10469 10467 10465 10469 10475 10479 10480 10481 10484 10486 10487 10487 10488 10490 10493 10496 10496 10496 10498 10501 10503 10504 10505 10506 10507 10507 10508 10510 10512 10513 10515 10516 10518 10520 10521 10522 10522 10523
10441 10442 10443 10443 10443 10444 10446 10448 10450 10453 10455 10457 10458 10458 10458 10460 10461 10461 10462 10465 10465 10466 10468 10467 10462 10462 10461 10459 10460 10464 10467 10469 10472 10474 10475 10476 10476 10478 10480 10482 10485 10486 10486 10487 10490 10492 10494 10495 10495 10496 10497 10497 10499 10501 10503 10504 10506 10507 10508 10510 10511 10511 10512
10432 10433 10433 10433 10434 10435 10435 10437 10439 10442 10444 10446 10448 10449 10449 10450 10451 10453 10456 10457 10458 10459 10461 10460 10456 10454 10454 10453 10452 10454 10456 10459 10462 10463 10463 10463 10464 10467 10470 10471 10473 10475 10476 10477 10478 10480 10483 10484 10484 10485 10486 10487 10488 10489 10491 10493 10494 10495 10496 10498 10499 10500 10500
10423 10423 10423 10423 10424 10424 10426 10427 10428 10430 10432 10434 10436 10437 10438 10439 10440 10443 10447 10448 10449 10452 10453 10451 10449 10447 10446 10446 10446 10445 10445 10449 10453 10453 10450 10451 10453 10455 10458 10461 10462 10463 10465 10466 10466 10468 10471 10473 10472 10473 10474 10475 10477 10478 10479 10481 10482 10483 10484 10485 10488 10489 10489
10413 10413 10413 10414 10414 10414 10416 10417 10418 10419 10420 10421 10423 10425 10427 10428 10429 10430 10434 10438 10443 10447 10444 10440 10438 10437 10437 10438 10438 10436 10436 10439 10442 10441 10438 10439 10442 10444 10446 10449 10450 10452 10454 10455 10455 10457 10460 10460 10459 10460 10463 10465 10466 10467 10468 10468 10469 10470 10472 10473 10476 10477 10477
10401 10402 10403 10403 10404 10404 10405 10406 10407 10408 10409 10409 10410 10412 10414 10416 10417 10419 10421 10426 10435 10439 10434 10429 10427 10426 10426 10429 10429 10428 10427 10429 10430 10430 10428 10429 10431 10432 10434 10436 10438 10440 10441 10443 10444 10446 10447 10446 10447 10448 10451 10454 10455 10455 10456 10456 10457 10459 10460 10461 10462 10464 10465
10388 10390 10391 10392 10393 10393 10394 10395 10395 10397 10398 10399 10399 10401 10402 10404 10406 10408 10409 10414 10424 10428 10422 10418 10416 10414 10415 10418 10419 10418 10417 10417 10418 10419 10419 10420 10421 10422 10423 10424 10425 10427 10428 10430 10431 10432 10433 10433 10435 10437 10439 10441 10442 10443 10443 10443 10445 10447 10448 10449 10449 10450 10452
10374 10376 10377 10378 10380 10381 10382 10382 10383 10384 10386 10388 10389 10389 10391 10393 10395 10397 10400 10406 10413 10413 10407 10404 10403 10403 10404 10407 10407 10406 10405 10404 10405 10407 10409 10411 10412 10411 10412 10412 10413 10414 10415 10416 10417 10418 10419 10420 10421 10424 10426 10428 10429 10429 10430 10430 10432 10434 10435 10436 10437 10437 10438
10362 10363 10364 10365 10366 10367 10368 10369 10370 10371 10373 10376 10377 10378 10379 10381 10383 10388 10393 10397 10399 10397 10393 10392 10392 10393 10393 10394 10394 10394 10392 10391 10393 10396 10399 10400 10400 10399 10400 10401 10402 10403 10403 10403 10403 10404 10405 10406 10408 10410 10412 10414 10415 10416 10416 10417 10419 10420 10421 10422 10423 10423 10424
10352 10352 10352 10352 10353 10354 10354 10355 10356 10358 10360 10363 10365 10366 10366 10368 10372 10378 10383 10384 10383 10382 10382 10381 10382 10382 10381 10380 10380 10380 10379 10380 10382 10385 10387 10387 10387 10387 10387 10389 10390 10390 10390 10390 10389 10390 10392 10394 10395 10397 10397 10399 10401 10402 10403 10404 10404 10406 10407 10408 10408 10409 10410
10341 10341 10340 10340 10341 10342 10342 10343 10343 10345 10348 10350 10352 10353 10353 10356 10362 10367 10370 10370 10369 10369 10370 10370 10371 10371 10370 10369 10368 10368 10369 10369 10370 10372 10373 10374 10374 10374 10374 10376 10378 10377 10376 10376 10377 10378 10380 10381 10382 10383 10383 10385 10387 10388 10389 10390 10390 10391 10392 10393 10394 10395 10396
10330 10329 10328 10328 10329 10330 10331 10331 10332 10334 10336 10338 10340 10341 10341 10345 10351 10354 10356 10357 10357 10356 10357 10358 10359 10358 10358 10358 10358 10358 10359 10358 10356 10358 10360 10361 10361 10361 10360 10363 10366 10366 10364 10364 10365 10366 10368 10368 10369 10370 10370 10371 10372 10373 10374 10375 10376 10377 10377 10379 10380 10382 10383
10318 10318 10316 10316 10318 10319 10320 10320 10321 10323 10325 10327 10329 10329 10331 10335 10338 10340 10343 10345 10344 10344 10344 10345 10345 10346 10347 10347 10347 10346 10347 10346 10344 10345 10346 10347 10348 10349 10348 10350 10353 10354 10353 10354 10355 10355 10355 10355 10356 10356 10356 10356 10357 10358 10359 10361 10362 10363 10364 10365 10367 10368 10369
10307 10306 10305 10305 10306 10308 10309 10309 10310 10311 10314 10317 10319 10319 10319 10322 10326 10328 10329 10331 10331 10331 10332 10332 10334 10335 10335 10335 10334 10334 10334 10334 10333 10333 10334 10334 10335 10336 10336 10338 10340 10342 10342 10343 10344 10343 10342 10342 10343 10343 10343 10343 10343 10344 10345 10346 10347 10349 10350 10351 10352 10354 10355